| time (UTC) | temp F | wind direction | speed knots | gust knots | rain 1hr in | rain 24hr in | rain mn in | humidity % | barometer mb |
| 20260506201457 | 49 | 336 | 2.6 | 4.3 | 0.00 | 0.85 | 0.61 | 97 | 1008.6 |
| 20260506200456 | 49 | 312 | 1.7 | 4.3 | 0.00 | 0.87 | 0.61 | 97 | 1008.4 |
| 20260506195514 | 49 | 332 | 1.7 | 3.5 | 0.00 | 0.89 | 0.61 | 97 | 1008.4 |
| 20260506194453 | 49 | 320 | 2.6 | 4.3 | 0.00 | 0.91 | 0.61 | 97 | 1008.5 |
| 20260506193510 | 49 | 308 | 1.7 | 2.6 | 0.00 | 0.93 | 0.61 | 96 | 1008.3 |
| 20260506192448 | 49 | 337 | 2.6 | 5.2 | 0.00 | 0.95 | 0.61 | 96 | 1008.2 |
| 20260506191447 | 49 | 332 | 3.5 | 6.1 | 0.00 | 0.97 | 0.61 | 95 | 1008.1 |
| 20260506190445 | 50 | 339 | 3.5 | 6.1 | 0.00 | 0.97 | 0.60 | 95 | 1007.9 |
| 20260506185443 | 50 | 357 | 2.6 | 5.2 | 0.00 | 0.97 | 0.60 | 94 | 1007.8 |
| 20260506184441 | 50 | 348 | 3.5 | 5.2 | 0.00 | 0.98 | 0.60 | 94 | 1007.7 |
| 20260506183437 | 50 | 320 | 3.5 | 7.0 | 0.00 | 0.98 | 0.60 | 94 | 1007.5 |
| 20260506182435 | 51 | 290 | 2.6 | 5.2 | 0.00 | 0.98 | 0.60 | 93 | 1007.3 |
| 20260506181434 | 51 | 308 | 1.7 | 3.5 | 0.00 | 0.98 | 0.60 | 93 | 1007.1 |
| 20260506180433 | 51 | 304 | 2.6 | 5.2 | 0.00 | 0.98 | 0.60 | 93 | 1007.2 |
| 20260506175431 | 51 | 307 | 3.5 | 5.2 | 0.00 | 0.99 | 0.60 | 93 | 1007.1 |
| 20260506174429 | 51 | 297 | 3.5 | 5.2 | 0.00 | 0.99 | 0.60 | 93 | 1007.1 |
| 20260506173427 | 51 | 318 | 1.7 | 3.5 | 0.00 | 0.99 | 0.60 | 93 | 1007.0 |
| 20260506172423 | 51 | 332 | 2.6 | 5.2 | 0.00 | 0.99 | 0.60 | 93 | 1007.0 |
| 20260506171441 | 51 | 295 | 3.5 | 5.2 | 0.00 | 0.99 | 0.60 | 93 | 1007.0 |
| 20260506170420 | 52 | 326 | 3.5 | 3.5 | 0.00 | 0.99 | 0.60 | 92 | 1006.9 |
| 20260506165417 | 52 | 291 | 3.5 | 7.0 | 0.00 | 0.99 | 0.60 | 92 | 1006.8 |
| 20260506164415 | 53 | 295 | 3.5 | 5.2 | 0.00 | 0.99 | 0.60 | 91 | 1006.8 |
| 20260506163434 | 53 | 308 | 3.5 | 5.2 | 0.00 | 0.99 | 0.60 | 90 | 1006.7 |
| 20260506162412 | 53 | 307 | 3.5 | 5.2 | 0.00 | 0.99 | 0.60 | 90 | 1006.6 |
| 20260506161410 | 54 | 308 | 2.6 | 6.1 | 0.00 | 0.99 | 0.60 | 90 | 1006.6 |
| 20260506160429 | 54 | 292 | 3.5 | 6.1 | 0.00 | 0.99 | 0.60 | 89 | 1006.6 |
| 20260506155427 | 55 | 306 | 3.5 | 4.3 | 0.00 | 0.99 | 0.60 | 89 | 1006.7 |
| 20260506154407 | 55 | 301 | 3.5 | 4.3 | 0.00 | 0.99 | 0.60 | 87 | 1006.6 |
| 20260506153406 | 55 | 316 | 2.6 | 5.2 | 0.00 | 1.01 | 0.60 | 86 | 1006.6 |
| 20260506152404 | 56 | 316 | 2.6 | 5.2 | 0.00 | 1.03 | 0.60 | 86 | 1006.6 |
| 20260506151402 | 55 | 300 | 2.6 | 3.5 | 0.00 | 1.06 | 0.60 | 87 | 1006.6 |
| 20260506150401 | 55 | 323 | 3.5 | 4.3 | 0.00 | 1.06 | 0.60 | 87 | 1006.7 |
| 20260506145520 | 56 | 320 | 1.7 | 3.5 | 0.00 | 1.06 | 0.60 | 87 | 1006.6 |
| 20260506144459 | 55 | 331 | 2.6 | 5.2 | 0.00 | 1.06 | 0.60 | 89 | 1006.6 |
| 20260506143457 | 56 | 307 | 2.6 | 3.5 | 0.00 | 1.06 | 0.60 | 86 | 1006.5 |
| 20260506142455 | 57 | 301 | 2.6 | 5.2 | 0.00 | 1.06 | 0.60 | 85 | 1006.5 |
| 20260506141453 | 58 | 7 | 2.6 | 3.5 | 0.00 | 1.06 | 0.60 | 84 | 1006.6 |
| 20260506140451 | 57 | 327 | 2.6 | 3.5 | 0.00 | 1.06 | 0.60 | 85 | 1006.5 |
| 20260506135450 | 57 | 304 | 3.5 | 4.3 | 0.00 | 1.06 | 0.60 | 85 | 1006.6 |
| 20260506134449 | 56 | 313 | 2.6 | 4.3 | 0.00 | 1.06 | 0.60 | 86 | 1006.6 |
| 20260506133447 | 56 | 306 | 3.5 | 6.1 | 0.00 | 1.06 | 0.60 | 87 | 1006.6 |
| 20260506132446 | 57 | 328 | 2.6 | 3.5 | 0.00 | 1.13 | 0.60 | 85 | 1006.7 |
| 20260506131443 | 57 | 292 | 2.6 | 3.5 | 0.00 | 1.19 | 0.60 | 84 | 1006.6 |
| 20260506130442 | 58 | 313 | 3.5 | 7.0 | 0.00 | 1.21 | 0.60 | 85 | 1006.6 |
| 20260506125441 | 58 | 303 | 1.7 | 5.2 | 0.00 | 1.23 | 0.60 | 84 | 1006.5 |
| 20260506124439 | 59 | 352 | 5.2 | 9.6 | 0.00 | 1.23 | 0.60 | 84 | 1006.4 |
| 20260506123436 | 58 | 13 | 4.3 | 5.2 | 0.00 | 1.23 | 0.60 | 85 | 1006.4 |
| 20260506122434 | 58 | 328 | 3.5 | 7.0 | 0.00 | 1.23 | 0.60 | 85 | 1006.4 |
| 20260506121433 | 60 | 330 | 5.2 | 7.8 | 0.00 | 1.23 | 0.60 | 79 | 1006.5 |
| 20260506120430 | 59 | 112 | 2.6 | 4.3 | 0.00 | 1.25 | 0.60 | 78 | 1006.5 |
| 20260506115448 | 59 | 103 | 2.6 | 5.2 | 0.00 | 1.26 | 0.60 | 79 | 1006.4 |
| 20260506114425 | 59 | 157 | 0.9 | 3.5 | 0.00 | 1.26 | 0.60 | 80 | 1006.4 |
| 20260506113423 | 58 | 95 | 4.3 | 7.0 | 0.00 | 1.26 | 0.60 | 79 | 1006.4 |
| 20260506112421 | 58 | 111 | 5.2 | 7.8 | 0.00 | 1.26 | 0.60 | 80 | 1006.4 |
| 20260506111418 | 58 | 136 | 3.5 | 7.8 | 0.00 | 1.26 | 0.60 | 79 | 1006.4 |
| 20260506110415 | 57 | 175 | 2.6 | 4.3 | 0.00 | 1.26 | 0.60 | 82 | 1006.4 |
| 20260506105434 | 58 | 91 | 6.1 | 7.8 | 0.00 | 1.26 | 0.60 | 83 | 1006.4 |
| 20260506104412 | 58 | 118 | 3.5 | 4.3 | 0.00 | 1.26 | 0.60 | 83 | 1006.4 |
| 20260506103430 | 58 | 110 | 4.3 | 7.8 | 0.00 | 1.26 | 0.60 | 84 | 1006.4 |
| 20260506102408 | 57 | 147 | 6.1 | 8.7 | 0.00 | 1.26 | 0.60 | 87 | 1006.3 |
| 20260506101407 | 56 | 109 | 5.2 | 6.1 | 0.00 | 1.26 | 0.60 | 87 | 1006.4 |
| 20260506100446 | 56 | 113 | 6.1 | 8.7 | 0.00 | 1.26 | 0.60 | 88 | 1006.3 |
| 20260506095405 | 57 | 134 | 3.5 | 9.6 | 0.00 | 1.26 | 0.60 | 88 | 1006.2 |
| 20260506094403 | 57 | 124 | 4.3 | 9.6 | 0.00 | 1.26 | 0.60 | 88 | 1006.1 |
| 20260506093402 | 57 | 118 | 5.2 | 8.7 | 0.00 | 1.26 | 0.60 | 88 | 1006.1 |
| 20260506092401 | 56 | 110 | 5.2 | 7.0 | 0.00 | 1.26 | 0.60 | 88 | 1006.0 |
| 20260506091359 | 57 | 109 | 3.5 | 5.2 | 0.00 | 1.26 | 0.60 | 85 | 1006.1 |
| 20260506090357 | 58 | 123 | 0.9 | 1.7 | 0.00 | 1.26 | 0.60 | 84 | 1006.0 |
| 20260506085355 | 56 | 129 | 5.2 | 7.8 | 0.00 | 1.26 | 0.60 | 85 | 1005.9 |
| 20260506084354 | 56 | 132 | 3.5 | 7.0 | 0.00 | 1.26 | 0.60 | 86 | 1005.9 |
| 20260506083352 | 56 | 110 | 4.3 | 6.1 | 0.00 | 1.26 | 0.60 | 87 | 1005.8 |
| 20260506082351 | 56 | 113 | 1.7 | 3.5 | 0.00 | 1.26 | 0.60 | 88 | 1005.8 |
| 20260506081349 | 56 | 113 | 5.2 | 5.2 | 0.00 | 1.26 | 0.60 | 88 | 1005.8 |
| 20260506080347 | 57 | 110 | 2.6 | 6.1 | 0.00 | 1.26 | 0.60 | 86 | 1005.7 |
| 20260506073342 | 55 | 92 | 3.5 | 5.2 | 0.00 | 1.26 | 0.60 | 91 | 1005.6 |
| 20260506072341 | 54 | 117 | 3.5 | 3.5 | 0.00 | 1.26 | 0.60 | 93 | 1005.7 |
| 20260506071339 | 53 | 112 | 4.3 | 5.2 | 0.02 | 1.26 | 0.60 | 94 | 1005.6 |
| 20260506070338 | 53 | 110 | 4.3 | 7.0 | 0.03 | 1.26 | 0.60 | 94 | 1005.6 |
| 20260506062330 | 52 | 148 | 2.6 | 3.5 | 0.06 | 1.26 | 0.60 | 95 | 1005.6 |
| 20260506061328 | 52 | 175 | 0.9 | 2.6 | 0.06 | 1.24 | 0.59 | 95 | 1005.6 |
| 20260506060327 | 52 | 159 | 1.7 | 6.1 | 0.07 | 1.23 | 0.57 | 95 | 1005.4 |
| 20260506051318 | 51 | 282 | 0.9 | 0.9 | 0.06 | 1.19 | 0.53 | 96 | 1005.6 |
| 20260506050317 | 51 | 251 | 0.9 | 1.7 | 0.04 | 1.16 | 0.50 | 97 | 1005.6 |
| 20260506044354 | 51 | 183 | 0.0 | 0.9 | 0.03 | 1.15 | 0.49 | 97 | 1005.6 |
| 20260506043313 | 51 | 286 | 0.9 | 0.9 | 0.02 | 1.14 | 0.48 | 97 | 1005.6 |
| 20260506042311 | 51 | 13 | 0.9 | 0.9 | 0.01 | 1.13 | 0.47 | 97 | 1005.6 |
| 20260506041310 | 51 | 352 | 0.9 | 0.9 | 0.00 | 1.12 | 0.47 | 97 | 1005.8 |
| 20260506040309 | 51 | 282 | 0.9 | 0.9 | 0.00 | 1.12 | 0.46 | 97 | 1005.8 |
| 20260506035308 | 51 | 289 | 0.9 | 1.7 | 0.00 | 1.12 | 0.46 | 97 | 1005.8 |
| 20260506034307 | 51 | 282 | 0.0 | 0.9 | 0.00 | 1.12 | 0.46 | 97 | 1005.8 |
| 20260506033306 | 51 | 260 | 0.9 | 0.9 | 0.00 | 1.13 | 0.46 | 97 | 1005.9 |
| 20260506032306 | 51 | 4 | 1.7 | 2.6 | 0.00 | 1.13 | 0.46 | 97 | 1006.1 |
| 20260506031303 | 51 | 326 | 0.9 | 0.9 | 0.01 | 1.13 | 0.46 | 97 | 1006.2 |
| 20260506030323 | 51 | 355 | 1.7 | 1.7 | 0.01 | 1.13 | 0.46 | 97 | 1006.3 |
| 20260506025305 | 51 | 301 | 0.9 | 1.7 | 0.01 | 1.13 | 0.46 | 96 | 1006.3 |
| 20260506024300 | 51 | 2 | 1.7 | 2.6 | 0.02 | 1.13 | 0.46 | 96 | 1006.4 |
| 20260506023258 | 51 | 310 | 0.9 | 0.9 | 0.04 | 1.13 | 0.46 | 96 | 1006.4 |
| 20260506022256 | 51 | 279 | 0.9 | 0.9 | 0.07 | 1.13 | 0.46 | 96 | 1006.5 |
| 20260506021255 | 51 | 220 | 0.0 | 0.0 | 0.09 | 1.13 | 0.46 | 97 | 1006.5 |
| 20260506020254 | 51 | 348 | 0.0 | 0.9 | 0.11 | 1.13 | 0.45 | 97 | 1006.6 |
| 20260506015312 | 51 | 1 | 0.9 | 0.9 | 0.13 | 1.13 | 0.45 | 97 | 1006.5 |
| 20260506014251 | 51 | 240 | 0.9 | 0.9 | 0.15 | 1.11 | 0.44 | 96 | 1006.6 |
| 20260506013249 | 51 | 228 | 0.0 | 0.9 | 0.15 | 1.09 | 0.42 | 96 | 1006.7 |
| 20260506012247 | 51 | 253 | 0.0 | 0.9 | 0.14 | 1.06 | 0.39 | 96 | 1006.8 |
| 20260506011245 | 52 | 300 | 0.9 | 0.9 | 0.14 | 1.04 | 0.36 | 97 | 1006.8 |
| 20260506010244 | 52 | 335 | 0.9 | 1.7 | 0.15 | 1.02 | 0.34 | 97 | 1006.9 |
| 20260506005242 | 52 | 294 | 0.9 | 2.6 | 0.15 | 0.99 | 0.32 | 96 | 1007.0 |
| 20260506004240 | 52 | 279 | 1.7 | 1.7 | 0.16 | 0.97 | 0.29 | 96 | 1007.1 |
| 20260506003235 | 52 | 14 | 1.7 | 1.7 | 0.15 | 0.95 | 0.27 | 96 | 1007.1 |
| 20260506002233 | 52 | 277 | 0.9 | 2.6 | 0.14 | 0.92 | 0.24 | 96 | 1007.3 |
| 20260506001241 | 52 | 288 | 1.7 | 3.5 | 0.12 | 0.89 | 0.22 | 96 | 1007.4 |
| 20260506000219 | 53 | 283 | 1.7 | 2.6 | 0.10 | 0.86 | 0.19 | 95 | 1007.6 |
| 20260505235218 | 53 | 323 | 1.7 | 4.3 | 0.09 | 0.84 | 0.16 | 95 | 1007.7 |
| 20260505234216 | 53 | 322 | 1.7 | 2.6 | 0.08 | 0.81 | 0.14 | 94 | 1007.8 |
| 20260505233215 | 54 | 301 | 0.9 | 1.7 | 0.07 | 0.79 | 0.12 | 95 | 1007.8 |
| 20260505232213 | 54 | 167 | 4.3 | 8.7 | 0.07 | 0.78 | 0.11 | 94 | 1007.8 |
| 20260505231211 | 54 | 172 | 1.7 | 3.5 | 0.08 | 0.78 | 0.10 | 94 | 1007.8 |
| 20260505230210 | 54 | 165 | 2.6 | 3.5 | 0.08 | 0.76 | 0.08 | 95 | 1007.9 |
| 20260505225208 | 54 | 210 | 1.7 | 1.7 | 0.09 | 0.75 | 0.07 | 95 | 1007.9 |
| 20260505224207 | 54 | 298 | 0.9 | 1.7 | 0.09 | 0.73 | 0.06 | 96 | 1008.0 |
| 20260505223206 | 54 | 276 | 0.9 | 3.5 | 0.10 | 0.72 | 0.04 | 96 | 1008.1 |
| 20260505222225 | 54 | 308 | 1.7 | 2.6 | 0.12 | 0.71 | 0.03 | 96 | 1008.0 |
| 20260505221203 | 54 | 296 | 1.7 | 1.7 | 0.13 | 0.70 | 0.02 | 97 | 1008.1 |
| 20260505220202 | 54 | 290 | 1.7 | 2.6 | 0.14 | 0.68 | 0.00 | 96 | 1008.1 |
| 20260505215716 | 54 | 293 | 1.7 | 2.6 | 0.14 | 0.67 | 0.67 | 96 | 1008.1 |
| 20260505214714 | 54 | 317 | 1.7 | 2.6 | 0.14 | 0.65 | 0.65 | 96 | 1008.1 |
| 20260505213712 | 54 | 285 | 0.9 | 1.7 | 0.15 | 0.63 | 0.63 | 97 | 1008.3 |
| 20260505212650 | 54 | 263 | 1.7 | 1.7 | 0.15 | 0.61 | 0.61 | 97 | 1008.4 |
| 20260505211648 | 54 | 235 | 0.9 | 0.9 | 0.14 | 0.58 | 0.58 | 96 | 1008.3 |
| 20260505210727 | 54 | 341 | 1.7 | 1.7 | 0.13 | 0.55 | 0.55 | 96 | 1008.2 |
| 20260505205645 | 54 | 1 | 1.7 | 1.7 | 0.13 | 0.53 | 0.53 | 95 | 1008.2 |
| 20260505204643 | 53 | 231 | 0.0 | 0.0 | 0.12 | 0.50 | 0.50 | 96 | 1008.4 |
| 20260505203641 | 53 | 22 | 0.9 | 0.9 | 0.12 | 0.48 | 0.48 | 96 | 1008.4 |
| 20260505202640 | 54 | 165 | 0.9 | 0.9 | 0.13 | 0.46 | 0.46 | 95 | 1008.4 |